MOLNIYA 3-27

Last updated on Aug. 6, 2020, 5:30 a.m. UTC

1 16393U 85117A   20217.96357910  .00000096  00000-0  00000+0 0  9990
2 16393  64.6490 160.2875 6573055 256.1354  27.6295  2.12399938259721
UTC
Height (km)
Latitude
Longitude
Inclination
Orbital Period
UTC large
Height (km)
Speed (km/s)
/
Latitude / Longitude
Inclination (degrees)
Orbital Period (minutes)
Azimuth
Elevation
Range (km)
Doppler Factor
iOS Compass Heading
iOS Angle

Next 30 passes for location: Hong Kong

Rise time Rise Azimuth (degrees) Set time Set Azimuth (degrees) Duration Max altitude (degrees)

No matching passes for this satellites